EW6761 Weather Reports


time (UTC)temp
F
wind
direction
speed
knots
gust
knots
rain 1hr
in
rain 24hr
in
rain mn
in
humidity
%
barometer
mb
20260505183034 77 193 0.0 2.6 0.00 0.00 0.00 73 1002.6
20260505181508 75 319 0.0 1.7 0.00 0.00 0.00 74 1002.8
20260505180056 75 130 0.0 1.7 0.00 0.00 0.00 76 1002.8
20260505174517 74 75 0.9 2.6 0.00 0.00 0.00 76 1002.8
20260505173047 74 125 0.0 3.5 0.00 0.00 0.00 76 1003.0
20260505171533 73 20 0.0 2.6 0.00 0.00 0.00 76 1003.0
20260505170138 72 80 0.9 2.6 0.00 0.00 0.00 77 1003.2
20260505164522 72 86 0.9 6.1 0.00 0.00 0.00 77 1003.1
20260505163056 72 333 0.9 3.5 0.00 0.00 0.00 78 1003.2
20260505161543 71 199 0.9 5.2 0.00 0.00 0.00 78 1003.2
20260505160117 70 113 0.9 6.1 0.00 0.00 0.00 79 1003.1
20260505153024 69 131 0.9 9.6 0.00 0.00 0.00 81 1003.2
20260505151600 68 80 2.6 11.3 0.00 0.00 0.00 81 1003.3
20260505151502 68 113 3.5 11.3 0.00 0.00 0.00 80 1003.3
20260505140106 67 101 2.6 8.7 0.00 0.00 0.00 78 1003.5
20260505124544 67 116 0.9 5.2 0.00 0.00 0.00 76 1003.5
20260505123041 66 139 0.9 7.0 0.00 0.00 0.00 76 1003.3
20260505121502 66 161 0.0 6.1 0.00 0.00 0.00 76 1003.3
20260505120042 66 163 0.9 6.1 0.00 0.00 0.00 76 1002.9
20260505114615 66 145 0.9 5.2 0.00 0.00 0.00 76 1002.7
20260505114502 66 135 1.7 5.2 0.00 0.00 0.00 76 1002.7
20260505113043 66 114 1.7 5.2 0.00 0.00 0.00 76 1002.7
20260505111529 66 154 1.7 6.1 0.00 0.00 0.00 75 1002.6
20260505101545 66 158 0.9 6.1 0.00 0.00 0.00 75 1002.1
20260505100010 67 11 0.0 4.3 0.00 0.00 0.00 75 1002.0
20260505094548 67 124 0.0 4.3 0.00 0.00 0.00 74 1002.2
20260505093030 67 123 0.9 5.2 0.00 0.00 0.00 73 1002.3
20260505091510 67 139 0.0 3.5 0.00 0.00 0.00 74 1002.3
20260505090053 67 145 0.0 4.3 0.00 0.00 0.00 74 1002.2
20260505084515 66 121 0.9 2.6 0.00 0.00 0.00 75 1002.0
20260505083059 66 72 0.0 1.7 0.00 0.00 0.00 76 1001.8
20260505081540 65 190 0.0 1.7 0.00 0.00 0.00 76 1001.6
20260505080105 65 139 0.0 3.5 0.00 0.00 0.00 76 1001.8
20260505074523 65 151 0.0 2.6 0.00 0.00 0.00 76 1001.7
20260505073105 65 148 0.0 2.6 0.00 0.00 0.00 76 1001.9
20260505071538 66 111 0.0 1.7 0.00 0.00 0.00 75 1002.2
20260505070110 66 56 0.0 2.6 0.00 0.00 0.00 75 1002.3
20260505064551 66 125 0.0 0.9 0.00 0.00 0.00 75 1002.9
20260505063007 66 116 0.0 0.9 0.00 0.00 0.00 74 1003.3
20260505061549 66 96 0.0 0.9 0.00 0.00 0.00 74 1003.6
20260505060012 66 105 0.0 1.7 0.00 0.00 0.00 72 1003.6
20260505054558 66 116 0.0 1.7 0.00 0.00 0.00 73 1003.4
20260505053031 67 235 1.7 5.2 0.00 0.00 0.00 71 1003.6
20260505051505 67 203 0.0 1.7 0.00 0.00 0.00 71 1003.5
20260505041527 65 148 0.0 0.9 0.00 0.00 0.00 72 1004.2
20260505040055 66 148 0.0 0.9 0.00 0.00 0.00 70 1004.7
20260505034519 66 148 0.0 0.9 0.00 0.00 0.00 69 1005.0
20260505033057 67 148 0.0 1.7 0.00 0.00 0.00 69 1004.9
20260505031539 67 29 0.0 0.0 0.00 0.00 0.00 68 1005.2
20260505030115 67 30 0.0 0.0 0.00 0.00 0.00 68 1005.1
20260505024546 68 29 0.0 0.0 0.00 0.00 0.00 66 1005.0
20260505023021 69 29 0.0 0.0 0.00 0.00 0.00 64 1005.2
20260505021557 69 29 0.0 1.7 0.00 0.00 0.00 64 1004.9
20260505020037 69 336 0.0 0.9 0.00 0.00 0.00 63 1005.0
20260505014557 70 336 0.0 0.9 0.00 0.00 0.00 61 1004.6
20260505013041 71 326 0.0 1.7 0.00 0.00 0.00 60 1004.6
20260505011520 72 299 0.0 1.7 0.00 0.00 0.00 58 1004.4
20260505010059 73 356 0.0 3.5 0.00 0.00 0.00 57 1004.4
20260505004523 74 289 0.0 6.1 0.00 0.00 0.00 55 1004.1
20260505003057 75 39 0.9 4.3 0.00 0.00 0.00 54 1004.2
20260505001547 77 260 0.9 5.2 0.00 0.00 0.00 53 1004.1
20260505000005 78 293 0.9 4.3 0.00 0.00 0.00 51 1004.3
20260504234549 79 225 0.9 6.1 0.00 0.00 0.00 50 1004.2
20260504233023 79 297 0.0 13.0 0.00 0.00 0.00 52 1004.3
20260504231605 78 265 0.0 4.3 0.00 0.00 0.00 52 1004.3
20260504231503 78 249 0.0 4.3 0.00 0.00 0.00 52 1004.4
20260504230019 78 216 0.0 5.2 0.00 0.00 0.00 50 1004.4
20260504224555 79 293 0.0 6.1 0.00 0.00 0.00 50 1004.3
20260504223035 80 360 0.9 7.0 0.00 0.00 0.00 48 1004.2
20260504221510 82 334 1.7 6.1 0.00 0.00 0.00 46 1004.5
20260504220049 82 266 0.9 5.2 0.00 0.00 0.00 47 1004.6
20260504214509 83 187 0.9 7.0 0.00 0.00 0.00 45 1004.7
20260504213047 81 256 0.9 7.8 0.00 0.00 0.00 46 1004.8
20260504211530 81 342 1.7 6.1 0.00 0.00 0.00 46 1004.9
20260504210111 82 251 0.9 6.1 0.00 0.00 0.00 47 1005.4
20260504204527 82 241 0.9 6.1 0.00 0.00 0.00 47 1005.6
20260504203104 81 228 0.0 6.1 0.00 0.00 0.00 49 1005.9
20260504203007 81 324 0.0 6.1 0.00 0.00 0.00 46 1005.9
20260504201547 81 283 1.7 8.7 0.00 0.00 0.00 46 1006.2
20260504200115 81 194 1.7 7.8 0.00 0.00 0.00 44 1006.4
20260504194559 82 281 1.7 6.1 0.00 0.00 0.00 44 1006.7
20260504193019 81 268 2.6 7.0 0.00 0.00 0.00 43 1007.1
20260504191556 81 255 1.7 9.6 0.00 0.00 0.00 46 1007.3
20260504190021 81 222 2.6 8.7 0.00 0.00 0.00 45 1007.4
20260504184600 80 168 2.6 10.4 0.00 0.00 0.00 44 1007.6